sat.trackr.live / text

‹ back to catalog

STARLINK-31614

NORAD 59328 · 2024-057J

PAYLOAD ACTIVE UNKNOWN

§ Identity

Operator
Country
US
Launch date
2024-03-25
Launch site
AFETR
Launch vehicle
Mass (kg)
RCS (m²)

Purposes: comms

External: N2YO · Heavens-Above · Gunter

§ Orbital elements

Epoch: 2026-09-20T02:54:32.597568Z

Period
94.27 min
Inclination
43.0048°
Eccentricity
0.0000943
Mean motion
15.27577837 rev/d
Perigee alt
482.4 km
Apogee alt
483.7 km
Semi-major
6,861.2 km
B*
7.7605e-7
RAAN
169.1355°
Arg perigee
281.0724°
Mean anomaly
79.0021°
Rev number
13,957

§ Raw data

STARLINK-316141 59328U 24057J   26263.12121062 -.00000241  00000+0  77605-6 0  99972 59328  43.0048 169.1355 0000943 281.0724  79.0021 15.27577837139574

JSON: /api/v1/satellites/59328 · /tle

For live sub-satellite position, see the globe view (requires WebGL).

§ Visibility from observer

Set your observer location to see the next 7 days of passes ≥ 10°. The values pass through the URL so the page stays shareable.

No JS? Fill the form by hand. The geolocation button needs JavaScript.